{"data":{"norad_id":69335,"intl_designator":"2026-122G","name":"STARLINK-37877","alt_names":[],"object_type":"PAYLOAD","status":"ACTIVE","operator":null,"country":"US","launch_date":"2026-06-03","launch_site_code":"AFWTR","launch_vehicle":null,"mission":null,"orbit_class":"UNKNOWN","rcs_meters":null,"size_class":null,"mass_kg":null,"dimensions":null,"purposes":["comms"],"wikipedia_slug":null,"has_3d_model":false,"image_url":null,"decayed_at":null,"tle_current":{"epoch":"2026-09-20T00:33:20.693952Z","epoch_age_seconds":70226,"freshness":"FRESH","line1":"1 69335U 26122G   26263.02315618  .00016727  00000+0  51910-3 0  9995","line2":"2 69335  97.2839 291.6086 0001156  72.1400 287.9969 15.33456782 16725","mean_motion":15.33456782,"eccentricity":0.0001156,"inclination_deg":97.2839,"raan_deg":291.6086,"arg_perigee_deg":72.14,"mean_anomaly_deg":287.9969,"bstar":0.0005191,"rev_number":1672,"period_min":93.905483147813,"perigee_km":464.71699438408,"apogee_km":466.29924513576,"semimajor_km":6843.6451197599,"source":"CELESTRAK","updated_at":"2026-09-20T09:00:44.160128Z"}}}